SUPERBIRD-B3

Last updated on Tue Sep 22 2026 00:03:14 GMT+0000 (Coordinated Universal Time)

1 43271U 18033A 26264.58736116 -.00000096 00000+0 00000+0 0 9993 2 43271 0.0275 94.7082 0001278 65.9563 213.2902 1.00271490 31024
UTC large
Height (km)
Speed (km/s)
/
Latitude / Longitude
Inclination (degrees)
Orbital Period (minutes)
Azimuth
Elevation
Range (km)
Doppler Factor

Next 0 passes for location: London (51.5072 / 0.1276)

No passes found over London.
SUPERBIRD-B3